GW1200 Weather Reports


Display with metric or nautical units.
time (UTC)temp
F
wind
direction
speed
MPH
gust
MPH
rain 1hr
in
rain 24hr
in
rain mn
in
humidity
%
barometer
mb
20260505231548 73 282 1.0 2.0 0.00 0.00 0.00 72 4245.7
20260505230544 73 39 1.0 1.0 0.00 0.00 0.00 71 4245.8
20260505225543 73 235 3.0 3.0 0.00 0.00 0.00 71 4246.0
20260505224542 73 267 2.0 3.0 0.00 0.00 0.00 70 4246.1
20260505223542 73 251 3.0 3.0 0.00 0.00 0.00 70 4246.1
20260505222540 73 313 2.0 3.0 0.00 0.00 0.00 70 4246.2
20260505221539 74 311 3.0 3.0 0.00 0.00 0.00 68 4246.2
20260505220539 74 251 3.0 7.0 0.00 0.00 0.00 68 4246.4
20260505215535 74 327 1.0 1.0 0.00 0.00 0.00 68 4246.5
20260505214530 74 331 1.0 1.0 0.00 0.00 0.00 68 4246.5
20260505213530 73 17 0.0 1.0 0.00 0.00 0.00 69 4246.3
20260505212528 73 343 0.0 1.0 0.00 0.00 0.00 70 4246.5
20260505211528 73 349 1.0 1.0 0.00 0.00 0.00 69 4246.7
20260505210528 75 238 3.0 5.0 0.00 0.00 0.00 67 4246.7
20260505205523 75 322 0.0 1.0 0.00 0.00 0.00 68 4246.6
20260505204523 75 297 1.0 1.0 0.00 0.00 0.00 64 4246.7
20260505203523 75 301 1.0 1.0 0.00 0.00 0.00 65 4246.8
20260505202522 73 15 0.0 1.0 0.00 0.00 0.00 68 4246.9
20260505201521 72 45 1.0 1.0 0.00 0.00 0.00 67 4247.4
20260505200516 72 177 2.0 2.0 0.00 0.00 0.00 67 4247.2
20260505195515 73 251 2.0 3.0 0.00 0.00 0.00 66 4247.1
20260505194510 74 353 1.0 1.0 0.00 0.00 0.00 65 4246.9
20260505193507 75 8 2.0 3.0 0.00 0.00 0.00 62 4247.4
20260505192503 75 34 2.0 2.0 0.00 0.00 0.00 63 4247.1
20260505191458 74 243 1.0 2.0 0.00 0.00 0.00 65 4247.8
20260505190456 74 343 1.0 1.0 0.00 0.00 0.00 67 4247.8
20260505185455 74 349 0.0 1.0 0.00 0.00 0.00 71 4247.9
20260505184454 73 303 0.0 1.0 0.00 0.00 0.00 74 4248.0
20260505183454 71 282 0.0 1.0 0.00 0.00 0.00 78 4248.1
20260505182453 71 216 1.0 1.0 0.00 0.00 0.00 80 4248.0
20260505181453 70 356 0.0 1.0 0.00 0.00 0.00 81 4248.2
20260505180452 69 305 0.0 0.0 0.00 0.00 0.00 79 4248.3
20260505175450 69 250 0.0 1.0 0.00 0.00 0.00 76 4248.8
20260505174451 71 267 1.0 1.0 0.00 0.00 0.00 76 4248.8
20260505173449 71 326 0.0 0.0 0.00 0.00 0.00 71 4249.0
20260505172445 71 236 1.0 2.0 0.00 0.00 0.00 67 4249.5
20260505171441 72 144 2.0 3.0 0.00 0.00 0.00 64 4249.5
20260505170440 72 293 0.0 1.0 0.00 0.00 0.00 63 4249.8
20260505165437 73 268 3.0 3.0 0.00 0.00 0.00 60 4249.5
20260505164436 74 110 3.0 3.0 0.00 0.00 0.00 57 4249.4
20260505163432 75 238 5.0 7.0 0.00 0.00 0.00 56 4249.3
20260505162432 76 308 1.0 2.0 0.00 0.00 0.00 56 4249.7
20260505161432 76 241 4.0 6.0 0.00 0.00 0.00 55 4249.9
20260505160428 76 47 3.0 3.0 0.00 0.00 0.00 59 4250.0
20260505152425 74 272 3.0 6.0 0.00 0.00 0.00 62 4249.6
20260505151421 74 33 3.0 3.0 0.00 0.00 0.00 62 4249.4
20260505150421 73 234 1.0 2.0 0.00 0.00 0.00 65 4249.7
20260505140409 68 265 2.0 2.0 0.00 0.00 0.00 71 4249.3
20260505124355 64 243 1.0 2.0 0.00 0.00 0.00 75 4249.2
20260505123352 65 19 1.0 1.0 0.00 0.00 0.00 74 4249.1
20260505122352 64 255 2.0 2.0 0.00 0.00 0.00 75 4248.9
20260505121351 64 254 0.0 1.0 0.00 0.00 0.00 75 4248.8
20260505120349 62 270 0.0 0.0 0.00 0.00 0.00 78 4248.6
20260505115345 62 244 1.0 2.0 0.00 0.00 0.00 76 4248.6
20260505114345 62 285 0.0 0.0 0.00 0.00 0.00 78 4248.5
20260505113344 60 266 0.0 0.0 0.00 0.00 0.00 81 4248.4
20260505112343 59 261 0.0 1.0 0.00 0.00 0.00 81 4248.3
20260505111340 60 346 0.0 0.0 0.00 0.00 0.00 80 4248.4
20260505110340 60 253 1.0 1.0 0.00 0.00 0.00 79 4248.0
20260505101333 60 243 1.0 2.0 0.00 0.00 0.00 79 4247.4
20260505100332 60 252 2.0 2.0 0.00 0.00 0.00 78 4247.4
20260505095331 61 237 4.0 5.0 0.00 0.00 0.00 77 4247.2
20260505094330 61 251 2.0 2.0 0.00 0.00 0.00 76 4247.2
20260505093329 61 253 3.0 5.0 0.00 0.00 0.00 76 4247.3
20260505092324 62 244 2.0 2.0 0.00 0.00 0.00 75 4247.2
20260505091319 62 242 3.0 5.0 0.00 0.00 0.00 74 4247.1
20260505090315 62 197 3.0 3.0 0.00 0.00 0.00 74 4247.1
20260505085310 62 231 2.0 3.0 0.00 0.00 0.00 73 4247.3
20260505084306 62 225 1.0 1.0 0.00 0.00 0.00 73 4247.1
20260505083306 62 246 1.0 2.0 0.00 0.00 0.00 73 4247.2
20260505082305 62 272 1.0 1.0 0.00 0.00 0.00 73 4247.3
20260505081304 62 254 1.0 1.0 0.00 0.00 0.00 74 4247.2
20260505080302 62 247 1.0 1.0 0.00 0.00 0.00 74 4247.4
20260505075301 62 270 1.0 1.0 0.00 0.00 0.00 73 4247.6
20260505074301 62 250 1.0 2.0 0.00 0.00 0.00 72 4247.7
20260505073256 63 335 0.0 0.0 0.00 0.00 0.00 71 4247.9
20260505072255 63 246 2.0 2.0 0.00 0.00 0.00 71 4248.1
20260505071253 63 285 1.0 2.0 0.00 0.00 0.00 71 4247.9
20260505070253 64 255 1.0 2.0 0.00 0.00 0.00 70 4248.0
20260505065251 64 257 2.0 6.0 0.00 0.00 0.00 69 4248.3
20260505064246 64 272 2.0 2.0 0.00 0.00 0.00 69 4248.1
20260505063246 64 228 1.0 1.0 0.00 0.00 0.00 69 4247.9
20260505062246 64 299 0.0 0.0 0.00 0.00 0.00 69 4248.1
20260505061240 64 237 1.0 5.0 0.00 0.00 0.00 69 4248.2
20260505060241 64 252 2.0 2.0 0.00 0.00 0.00 69 4248.5
20260505055238 64 246 2.0 2.0 0.00 0.00 0.00 69 4248.6
20260505054233 64 250 1.0 2.0 0.00 0.00 0.00 70 4248.6
20260505053233 63 244 1.0 1.0 0.00 0.00 0.00 70 4248.6
20260505052233 64 242 1.0 1.0 0.00 0.00 0.00 67 4248.7
20260505051228 65 242 1.0 2.0 0.00 0.00 0.00 67 4248.5
20260505050224 66 240 2.0 2.0 0.00 0.00 0.00 64 4248.6
20260505041220 67 255 1.0 2.0 0.00 0.00 0.00 61 4248.2
20260505040220 67 85 1.0 1.0 0.00 0.00 0.00 62 4248.5
20260505035218 67 232 1.0 2.0 0.00 0.00 0.00 61 4248.5
20260505034218 68 207 2.0 5.0 0.00 0.00 0.00 61 4248.2
20260505033213 68 184 0.0 1.0 0.00 0.00 0.00 60 4248.3
20260505032212 68 161 1.0 1.0 0.00 0.00 0.00 60 4248.4
20260505031212 68 273 0.0 1.0 0.00 0.00 0.00 60 4248.1
20260505030210 68 184 0.0 1.0 0.00 0.00 0.00 62 4248.3
20260505025205 68 186 1.0 1.0 0.00 0.00 0.00 62 4247.9
20260505024205 68 178 0.0 1.0 0.00 0.00 0.00 61 4248.1
20260505023200 68 184 0.0 1.0 0.00 0.00 0.00 61 4248.1
20260505022200 68 184 0.0 0.0 0.00 0.00 0.00 60 4248.1
20260505021159 68 174 0.0 0.0 0.00 0.00 0.00 60 4247.9
20260505020156 68 181 0.0 0.0 0.00 0.00 0.00 60 4247.9
20260505015156 68 186 0.0 1.0 0.00 0.00 0.00 62 4247.9
20260505014156 67 175 0.0 0.0 0.00 0.00 0.00 63 4247.9
20260505013156 68 181 0.0 1.0 0.00 0.00 0.00 64 4247.6
20260505012152 69 187 0.0 1.0 0.00 0.00 0.00 63 4247.7
20260505011149 69 187 1.0 1.0 0.00 0.00 0.00 60 4248.0
20260505010148 69 188 0.0 0.0 0.00 0.00 0.00 60 4247.9
20260505005147 70 300 0.0 0.0 0.00 0.00 0.00 58 4247.8
20260505004146 71 303 0.0 0.0 0.00 0.00 0.00 57 4247.7
20260505003141 72 288 0.0 0.0 0.00 0.00 0.00 55 4247.5
20260505002141 73 278 0.0 1.0 0.00 0.00 0.00 52 4247.6
20260505001141 74 306 0.0 0.0 0.00 0.00 0.00 51 4247.4
20260505000136 75 259 1.0 1.0 0.00 0.00 0.00 49 4247.5
20260504235134 76 250 0.0 1.0 0.00 0.00 0.00 48 4247.4
20260504234129 76 205 3.0 3.0 0.00 0.00 0.00 46 4247.6
20260504233126 77 304 2.0 5.0 0.00 0.00 0.00 46 4247.4